Regional Weather Roundup
Issued by NWS Cleveland, OH

Home | Current Version | Previous Version | Text Only | Print | Product List | Glossary Off
Versions: 1 2 3 4 5 6 7 8 9 10 11 12 13 14 15 16 17 18 19 20 21 22 23 24 25 26 27 28 29 30 31 32 33 34 35 36 37 38 39 40 41 42 43 44 45 46 47 48 49 50

000
ASUS41 KCLE 302200
RWRCLE
OHIO REGIONAL WEATHER ROUNDUP
NATIONAL WEATHER SERVICE WILMINGTON, OH
600 PM EDT TUE JUN 30 2015

NOTE: "FAIR" INDICATES FEW OR NO CLOUDS BELOW 12,000 FEET WITH NO
SIGNIFICANT WEATHER AND/OR OBSTRUCTIONS TO VISIBILITY.

OHZ001>008-015>018-024>027-034-035-043-044-302300-
   NORTHWEST OHIO

CITY           SKY/WX    TMP DP  RH WIND       PRES   REMARKS
DEFIANCE       MOSUNNY   76  62  62 W6        29.76F
FINDLAY        MOSUNNY   75  64  68 SW7       29.76F
TOLEDO EXPRESS MOSUNNY   74  62  66 SW7       29.75F
TOLEDO EXEC    MOSUNNY   76  61  59 W9        29.76F
LIMA           MOSUNNY   74  62  66 W8        29.78F
$$

OHZ009>014-019>023-028>033-038-089-302300-
   NORTHEAST OHIO

CITY           SKY/WX    TMP DP  RH WIND       PRES   REMARKS
CLE-HOPKINS    CLOUDY    69  65  86 SE6       29.79F
CLE-LAKEFRONT  LGT RAIN  68  62  81 CALM      29.76F
CUY CO. ARPT   LGT RAIN  68  64  88 SW5       29.78F
LORAIN-ELYRIA  PTSUNNY   71  63  75 W7        29.78S
ASHTABULA      LGT RAIN  68  60  75 NW5       29.79R
AKRON-CANTON   CLOUDY    67  63  87 W7        29.79S
WOOSTER        NOT AVBL
MANSFIELD      CLOUDY    69  63  81 W8        29.80S
YOUNGSTOWN     LGT RAIN  65  63  93 NW6       29.79F FOG
$$

OHZ042-051>053-060>062-070>072-077>081-302300-
  SOUTHWEST OHIO

CITY           SKY/WX    TMP DP  RH WIND       PRES   REMARKS
CINC-COVINGTON TSTM      64  62  93 SW6       29.83F FOG
CINC-LUNKEN    CLOUDY    64  60  87 S3        29.83F
HAMILTON       CLOUDY    70  64  81 CALM      29.82F
DAYTON         NOT AVBL
WRIGHT-PAT AFB NOT AVBL
DAYTON GENERAL CLOUDY    71  64  78 S8        29.81F
WILMINGTON     CLOUDY    68  61  78 SW8       29.82F
$$

OHZ036-037-039>041-045>050-054>059-063>069-073>076-082>088-302300-
  CENTRAL AND SOUTHEAST OHIO

CITY           SKY/WX    TMP DP  RH WIND       PRES   REMARKS
COLUMBUS       CLOUDY    68  63  84 S7        29.80S
OSU AIRPORT    CLOUDY    72  64  76 SW7       29.79S
BOLTON FIELD   SUNNY     70  64  83 SW8       29.80F
RICKENBACK AFB NOT AVBL
NEWARK         CLOUDY    68  62  81 SW8       29.81R
MARION         CLOUDY    73  62  68 W8        29.79F
LANCASTER      CLOUDY    66  59  78 S7        29.82S
ZANESVILLE     CLOUDY    68  59  73 S12       29.82R
NEW PHILLY     CLOUDY    67  62  84 S5        29.81R
$$



USA.gov is the U.S. government's official web portal to all federal, state and local government web resources and services.